Date,TemperatureHighF,TemperatureAvgF,TemperatureLowF,DewpointHighF,DewpointAvgF,DewpointLowF,HumidityHigh,HumidityAvg,HumidityLow,PressureMaxIn,PressureMinIn,WindSpeedMaxMPH,WindSpeedAvgMPH,GustSpeedMaxMPH,PrecipitationSumIn
2013-1-1,76.1,71.8,58.6,60.4,59.5,56.6,93,66,56,30.14,30.03,12,4,18,0.00
2013-1-2,75.5,68.9,62.3,68.9,65.9,61.6,98,91,77,30.06,29.98,10,2,13,0.00
2013-1-3,79.2,66.1,60.7,68.5,63.5,60.4,99,92,59,30.08,30.00,8,1,12,0.03
2013-1-4,64.6,62.3,59.7,60.2,59.1,57.6,96,89,84,30.23,30.16,13,4,14,0.01
2013-1-5,78.2,67.6,58.4,65.3,61.5,55.8,93,81,64,30.27,30.15,8,2,14,0.00
2013-1-6,79.0,68.9,61.9,70.9,65.7,60.7,99,90,74,30.18,30.05,11,2,15,0.00
2013-1-7,65.8,63.8,61.1,64.3,61.5,58.3,98,92,83,30.17,30.08,10,3,16,0.01
2013-1-8,84.8,70.6,61.0,70.2,64.9,59.6,98,84,57,30.19,30.09,7,2,12,0.01
2013-1-9,86.2,77.8,69.3,71.8,68.8,65.8,97,75,55,30.25,30.16,9,3,16,0.00
2013-1-10,83.8,73.3,67.8,69.4,66.2,62.5,97,80,52,30.26,30.17,12,2,21,0.00
2013-1-11,84.0,72.6,64.3,68.4,64.4,59.9,96,77,48,30.25,30.11,12,3,20,0.00
2013-1-12,83.1,74.2,64.2,69.4,66.9,63.3,97,79,56,30.16,30.06,11,2,17,0.00
2013-1-13,81.7,74.0,67.2,68.2,66.4,64.5,91,78,61,30.15,30.05,8,1,12,0.00
2013-1-14,79.5,69.3,60.6,66.0,61.8,58.6,97,79,50,30.15,30.09,10,2,13,0.00
2013-1-15,80.5,68.3,59.7,66.9,62.8,58.3,97,84,58,30.13,30.03,9,1,13,0.01
2013-1-16,80.1,72.1,63.2,66.7,64.3,59.6,98,79,51,30.09,29.99,9,2,14,0.01
2013-1-17,72.2,65.5,60.1,70.3,63.0,49.0,99,92,66,30.08,29.99,10,2,20,0.01
2013-1-18,62.6,53.4,42.7,56.8,47.8,35.8,93,82,67,30.30,30.21,13,5,20,0.00
2013-1-19,74.0,64.3,53.9,62.1,57.6,50.5,91,80,65,30.24,30.10,10,2,16,0.00
2013-1-20,74.4,65.8,60.9,64.7,61.3,58.6,94,86,70,30.15,30.02,6,2,12,0.00
2013-1-21,73.0,63.8,57.8,65.0,57.6,48.1,88,80,69,30.09,30.01,8,2,14,0.00
2013-1-22,63.7,58.7,55.5,49.9,42.0,32.3,77,56,36,30.26,30.11,12,3,20,0.00
2013-1-23,68.0,56.3,47.9,48.8,42.3,34.8,89,62,30,30.35,30.26,8,2,13,0.00
2013-1-24,68.9,61.6,53.7,54.9,51.7,46.0,95,72,46,30.33,30.24,9,3,14,0.00
2013-1-25,74.2,61.1,48.7,56.6,50.9,47.6,98,73,41,30.31,30.18,7,1,9,0.00
2013-1-26,71.4,63.1,48.0,59.1,55.8,47.5,99,79,58,30.27,30.16,8,2,13,0.00
2013-1-27,79.9,68.5,54.7,61.2,55.4,51.2,98,67,38,30.28,30.18,9,2,14,0.01
2013-1-28,82.2,68.5,60.2,64.2,61.1,57.7,95,79,49,30.30,30.18,9,1,14,0.00
2013-1-29,81.9,70.2,61.4,67.7,63.7,58.1,95,81,57,30.22,30.08,12,3,18,0.00
2013-1-30,77.5,72.9,66.6,68.4,66.6,63.6,92,81,69,30.04,29.91,18,9,30,0.00
2013-1-31,70.2,59.3,53.2,67.7,47.1,32.8,95,66,40,30.23,29.91,13,6,22,0.05
2013-2-1,66.0,55.7,44.7,46.4,37.0,26.8,74,53,24,30.35,30.21,13,4,20,0.00
2013-2-2,69.8,61.5,51.7,51.5,44.9,33.1,75,56,31,30.28,30.14,8,2,12,0.00
2013-2-3,68.5,60.3,49.3,55.3,51.9,47.9,96,75,58,30.20,30.09,8,2,12,0.00
2013-2-4,69.7,57.2,42.9,52.0,44.6,34.1,98,68,28,30.13,30.03,7,1,12,0.01
2013-2-5,74.8,59.9,45.4,56.8,49.1,39.8,94,70,44,30.08,29.99,9,2,14,0.00
2013-2-6,78.5,65.3,56.2,64.4,58.4,53.4,95,80,51,30.09,30.00,9,1,13,0.00
2013-2-7,77.7,72.3,64.6,66.9,65.1,60.7,93,79,57,30.04,29.88,16,7,23,0.06
2013-2-8,69.3,64.1,60.6,65.8,60.8,57.7,95,89,84,30.07,29.89,10,4,18,0.00
2013-2-9,74.5,66.2,56.9,58.6,56.0,53.9,93,71,51,30.17,30.06,9,3,16,0.00
2013-2-10,81.2,70.1,61.2,63.7,60.7,56.8,88,73,51,30.22,30.11,13,4,20,0.00
2013-2-11,78.8,68.8,61.0,67.9,63.6,59.3,95,84,65,30.18,30.07,15,4,22,0.00
2013-2-12,78.4,72.6,64.7,70.7,69.3,63.5,97,90,77,30.08,29.94,14,6,21,0.00
2013-2-13,77.4,71.8,65.4,72.7,69.2,55.5,99,92,70,29.98,29.86,14,6,22,0.03
2013-2-14,66.3,62.4,59.7,61.1,58.4,54.1,98,87,70,30.02,29.91,15,2,22,0.49
2013-2-15,67.5,61.7,55.5,60.1,56.6,51.6,96,83,74,30.06,29.95,7,2,12,0.64
2013-2-16,68.3,59.1,55.5,55.2,48.6,37.6,88,69,50,30.11,29.93,16,5,25,0.06
2013-2-17,55.4,47.5,40.3,39.6,29.1,23.3,75,49,34,30.33,30.11,16,5,22,0.00
2013-2-18,69.8,56.4,35.1,47.0,38.6,26.0,87,54,35,30.34,30.21,11,3,18,0.00
2013-2-19,74.0,68.2,54.6,62.7,59.3,50.2,94,74,58,30.17,30.08,13,4,21,0.00
2013-2-20,76.8,69.8,61.9,65.8,63.6,58.5,99,82,62,30.11,30.00,7,2,11,0.00
2013-2-21,79.8,69.1,58.8,67.3,62.7,56.8,94,81,61,30.10,29.97,10,2,16,0.00
2013-2-22,76.3,69.7,64.2,69.3,66.8,62.9,96,91,78,30.06,30.00,10,3,22,0.00
2013-2-23,79.9,74.8,70.0,73.2,71.1,68.5,96,89,78,29.99,29.89,14,6,20,0.00
2013-2-24,79.5,73.7,68.0,72.5,70.0,67.7,99,89,74,29.96,29.89,10,3,14,0.00
2013-2-25,78.5,71.6,66.7,72.6,69.2,66.1,99,92,77,29.90,29.76,11,2,21,0.01
2013-2-26,75.1,70.6,63.7,72.3,68.0,62.2,97,92,80,29.89,29.69,16,4,31,0.39
2013-2-27,70.2,67.1,64.3,63.6,60.7,56.8,90,81,66,29.97,29.88,9,2,14,0.00
2013-2-28,72.3,65.4,60.0,56.9,53.8,49.8,78,67,52,30.00,29.91,12,2,14,0.00
2013-3-1,61.0,58.4,54.9,50.0,45.8,41.3,69,63,57,30.01,29.93,11,4,16,0.00
2013-3-2,52.6,44.4,41.4,41.0,33.6,30.3,68,66,62,30.05,29.98,8,3,18,0.00
2013-3-3,55.2,51.3,45.5,41.8,38.7,32.3,68,62,58,30.15,30.02,16,4,23,0.00
2013-3-4,58.5,49.8,43.3,44.4,38.0,30.7,92,66,47,30.23,30.14,8,2,15,0.00
2013-3-5,70.8,56.7,40.0,62.5,50.6,37.8,95,81,60,30.16,30.04,11,2,15,0.00
2013-3-6,65.8,59.5,55.0,64.0,49.4,39.8,95,71,47,30.13,29.96,16,6,23,0.10
2013-3-7,60.1,52.9,46.7,47.3,39.5,34.4,87,61,43,30.22,30.12,11,4,17,0.00
2013-3-8,69.5,57.2,45.3,50.9,45.5,35.6,92,69,31,30.22,30.12,9,2,13,0.00
2013-3-9,75.3,67.0,54.5,55.4,48.8,42.7,72,54,33,30.20,30.10,8,2,12,0.00
2013-3-10,78.8,66.7,57.7,57.9,54.5,50.8,90,67,43,30.14,30.03,11,3,20,0.00
2013-3-11,75.8,69.9,60.9,63.2,60.6,56.6,86,73,57,30.09,29.90,17,6,24,0.00
2013-3-12,69.1,65.4,58.9,66.7,61.4,52.7,96,87,78,29.97,29.86,19,6,21,0.40
2013-3-13,69.9,63.0,59.3,49.6,44.1,34.4,66,51,29,30.18,30.09,16,6,28,0.00
2013-3-14,63.9,58.3,54.4,51.7,42.8,30.3,76,59,31,30.25,30.15,13,5,25,0.00
2013-3-15,68.8,60.7,49.6,48.1,43.1,31.8,89,56,28,30.27,30.15,11,2,14,0.00
2013-3-16,72.6,68.8,58.9,58.2,53.9,44.3,75,59,42,30.19,30.07,9,5,16,0.00
2013-3-17,75.8,68.6,55.2,60.7,58.9,53.8,95,72,57,30.12,29.99,11,3,16,0.01
2013-3-18,74.3,64.0,59.5,66.6,60.7,57.9,96,90,77,30.02,29.95,10,2,17,0.03
2013-3-19,82.2,74.7,66.0,67.3,65.4,62.9,96,73,58,30.00,29.89,19,2,20,0.00
2013-3-20,73.1,66.3,58.9,63.5,60.9,57.3,96,84,58,29.94,29.80,9,2,14,0.32
2013-3-21,67.0,60.5,54.9,59.0,46.1,31.2,98,63,32,29.98,29.86,12,4,18,0.00
2013-3-22,76.2,70.6,59.3,68.7,59.6,45.9,96,70,48,29.99,29.87,10,3,16,0.08
2013-3-23,77.5,72.8,68.6,72.8,70.7,66.2,98,93,84,29.96,29.80,14,6,20,0.04
2013-3-24,77.4,72.1,69.9,72.8,70.4,68.8,99,95,85,29.83,29.66,14,6,21,0.04
2013-3-25,65.0,61.8,56.5,52.5,45.8,39.6,69,56,42,30.02,29.87,14,6,24,0.00
2013-3-26,56.5,53.2,51.4,39.6,38.1,36.6,60,57,49,30.19,30.11,16,7,28,0.00
2013-3-27,56.6,51.2,44.5,41.8,38.0,31.2,74,61,46,30.32,30.23,12,4,18,0.00
2013-3-28,67.0,59.8,51.6,46.9,40.5,32.1,77,50,31,30.30,30.19,8,3,16,0.00
2013-3-29,75.3,59.4,44.0,52.8,44.2,33.2,94,64,23,30.32,30.18,9,1,14,0.00
2013-3-30,73.7,64.3,49.4,56.6,51.9,46.9,92,67,43,30.24,30.13,11,3,17,0.00
2013-3-31,77.5,74.1,65.7,59.3,58.1,56.8,73,58,52,30.14,30.06,12,6,20,0.00
2013-4-1,80.2,72.6,65.7,70.2,67.2,63.8,97,84,64,30.03,29.96,9,2,20,0.00
2013-4-2,81.0,70.0,62.8,66.0,62.3,57.1,99,79,48,30.08,29.99,9,1,14,0.01
2013-4-3,82.3,71.8,62.7,69.1,65.6,60.9,97,82,56,30.06,29.92,14,4,20,0.03
2013-4-4,71.6,68.2,65.1,69.1,66.4,64.2,98,94,83,30.08,29.84,16,3,23,3.83
2013-4-5,71.8,67.2,62.2,67.3,60.3,56.3,94,79,63,29.97,29.84,17,6,24,0.01
2013-4-6,72.4,66.0,59.4,61.3,57.7,53.3,88,75,60,30.08,29.96,10,4,18,0.00
2013-4-7,83.2,72.9,60.8,63.3,60.2,56.1,94,66,41,30.13,30.03,8,2,15,0.00
2013-4-8,85.3,73.1,63.0,64.9,61.4,55.4,90,69,38,30.11,30.02,10,2,15,0.00
2013-4-9,85.0,75.2,65.0,66.8,64.0,60.6,93,69,47,30.13,30.04,11,3,17,0.00
2013-4-10,85.9,76.1,63.6,69.4,65.6,61.8,94,72,52,30.09,29.94,10,2,18,0.00
2013-4-11,86.2,79.9,72.3,73.0,71.7,69.9,93,77,62,29.94,29.80,16,8,26,0.00
2013-4-12,78.6,76.3,73.3,74.4,73.0,68.5,93,90,85,29.92,29.80,15,7,29,0.00
2013-4-13,86.6,78.5,72.7,71.0,68.7,65.9,85,73,53,29.97,29.89,7,2,10,0.00
2013-4-14,82.8,75.6,69.7,75.1,69.7,62.3,95,82,67,30.00,29.84,18,5,26,0.00
2013-4-15,89.3,77.9,68.2,71.5,66.6,61.8,84,69,55,30.04,29.92,9,2,13,0.00
2013-4-16,91.0,80.8,69.3,75.6,71.7,67.5,97,75,52,30.11,30.00,8,2,14,0.00
2013-4-17,90.0,78.2,68.8,68.9,65.0,59.1,92,67,38,30.11,29.99,10,2,17,0.00
2013-4-18,86.8,77.1,67.3,72.7,68.4,64.7,92,76,55,30.03,29.93,9,3,14,0.00
2013-4-19,84.4,78.0,71.9,74.3,72.3,69.8,94,83,66,30.00,29.92,14,5,23,0.00
2013-4-20,76.1,72.2,65.6,73.4,66.6,62.3,95,83,70,30.11,29.96,12,4,20,0.00
2013-4-21,85.2,74.0,61.4,72.3,66.7,58.4,91,79,56,30.10,29.99,10,3,15,0.13
2013-4-22,82.0,77.5,69.9,70.5,68.4,66.0,96,74,61,30.05,29.95,9,4,13,0.21
2013-4-23,86.5,78.2,67.1,69.2,64.5,60.3,90,64,44,30.08,29.98,9,3,16,0.00
2013-4-24,85.4,73.7,62.3,67.7,63.6,56.5,93,73,38,30.11,30.05,7,2,13,0.00
2013-4-25,84.5,76.3,65.4,70.6,66.4,62.3,91,72,54,30.19,30.07,8,2,14,0.00
2013-4-26,86.3,77.3,66.1,71.1,65.7,58.8,91,69,47,30.22,30.13,8,2,12,0.00
2013-4-27,86.3,76.3,68.2,70.2,66.1,62.3,94,72,46,30.20,30.05,8,2,15,0.00
2013-4-28,86.7,75.7,64.6,68.1,64.7,58.8,92,70,42,30.10,29.94,9,2,15,0.00
2013-4-29,84.5,76.9,67.2,72.2,67.3,61.8,91,73,58,30.00,29.89,11,3,16,0.00
2013-4-30,87.8,76.5,68.9,72.4,69.0,64.2,95,79,48,29.98,29.89,8,2,14,0.31
2013-5-1,73.8,69.4,65.3,72.1,68.1,64.3,98,96,90,29.98,29.89,10,1,14,1.33
2013-5-2,79.7,73.7,65.8,71.4,68.5,64.9,97,85,70,29.95,29.80,5,1,9,0.00
2013-5-3,82.2,77.2,69.4,70.7,69.0,67.2,93,77,65,29.82,29.74,6,2,10,0.00
2013-5-4,79.1,70.5,64.9,69.7,66.8,63.7,98,89,73,29.81,29.68,7,2,16,0.01
2013-5-5,75.3,70.7,64.7,58.9,55.3,50.6,80,59,44,29.94,29.92,11,3,20,0.04
2013-5-6,75.2,71.4,65.0,60.4,58.5,56.4,78,64,56,30.00,29.93,8,2,15,0.01
2013-5-7,77.0,71.7,66.5,61.1,59.8,56.1,82,67,55,30.04,29.99,6,2,12,0.00
2013-5-8,78.9,70.6,60.9,63.8,61.1,58.6,97,74,53,30.13,30.02,7,1,10,0.00
2013-5-9,83.4,72.1,62.2,66.8,63.5,59.0,95,76,45,30.14,30.06,9,1,12,0.00
2013-5-10,86.5,73.6,64.1,73.1,67.6,60.9,97,83,49,30.12,29.99,8,1,16,0.00
2013-5-11,85.9,78.7,72.1,76.4,73.7,71.2,98,85,65,30.04,29.98,10,3,15,0.00
2013-5-12,85.8,78.0,72.4,74.8,71.7,68.3,97,82,63,30.04,29.93,7,1,12,0.00
2013-5-13,83.0,74.5,68.9,69.5,62.4,51.0,93,68,44,30.12,29.99,12,3,20,0.00
2013-5-14,82.0,72.1,61.1,59.4,52.6,45.9,73,52,29,30.19,30.09,10,3,17,0.00
2013-5-15,88.2,76.0,64.1,65.3,58.8,50.6,83,58,31,30.19,30.05,14,2,20,0.00
2013-5-16,85.0,74.8,64.2,67.9,63.1,60.8,90,69,46,30.11,29.99,8,1,13,0.00
2013-5-17,86.8,79.4,69.2,68.5,66.7,63.6,85,66,50,30.08,30.01,7,2,13,0.00
2013-5-18,88.5,78.7,69.7,73.5,68.5,63.1,95,73,48,30.09,30.00,6,1,10,0.00
2013-5-19,88.6,78.5,68.0,71.4,68.0,64.0,97,72,47,30.08,29.97,6,1,9,0.00
2013-5-20,90.7,80.0,70.4,75.0,70.1,64.9,89,73,53,30.05,29.94,14,2,21,0.00
2013-5-21,88.2,76.2,68.1,72.1,69.3,66.4,97,81,53,30.01,29.90,9,1,13,0.01
2013-5-22,86.7,77.6,68.2,73.6,70.4,66.2,94,80,59,29.95,29.87,9,1,13,0.00
2013-5-23,87.3,78.6,69.5,73.5,71.1,68.0,97,79,57,30.00,29.90,8,2,14,0.00
2013-5-24,88.3,83.5,77.2,76.5,72.8,68.4,87,71,58,30.05,30.00,9,2,15,0.00
2013-5-25,92.6,82.1,73.1,71.4,66.4,60.4,88,62,36,30.14,30.03,10,3,20,0.00
2013-5-26,89.0,77.4,67.0,65.0,59.3,47.8,86,58,26,30.19,30.08,9,2,16,0.00
2013-5-27,90.3,85.0,75.3,67.8,63.3,59.9,77,49,40,30.14,30.01,8,3,15,0.00
2013-5-28,90.5,78.4,70.1,75.4,70.6,66.6,96,78,51,30.11,29.99,14,3,22,1.64
2013-5-29,87.8,77.5,70.9,73.1,70.6,68.7,96,80,56,30.06,29.99,13,2,21,0.01
2013-5-30,88.5,78.7,72.6,73.7,70.8,68.6,94,78,57,30.05,29.96,14,3,29,0.02
2013-5-31,87.8,77.9,72.2,75.8,71.7,68.6,90,82,61,30.06,29.98,10,2,16,0.01
2013-6-1,87.2,77.2,72.6,78.6,73.2,70.5,97,88,66,30.02,29.93,7,1,13,0.86
2013-6-2,88.0,79.4,72.2,76.7,73.9,71.5,98,84,62,29.98,29.88,9,2,13,0.01
2013-6-3,84.0,78.1,74.6,77.2,74.3,72.5,96,88,75,29.98,29.89,10,2,15,0.26
2013-6-4,83.5,79.9,75.6,75.4,73.3,71.9,92,81,72,30.00,29.94,11,3,16,0.00
2013-6-5,82.1,76.4,73.0,74.8,73.1,71.2,96,90,73,29.98,29.86,9,2,14,0.28
2013-6-6,79.2,76.1,73.5,76.2,73.8,72.0,97,92,86,29.86,29.67,21,6,31,1.78
2013-6-7,84.0,77.6,71.7,75.7,73.4,70.7,98,87,71,29.95,29.77,8,1,13,0.00
2013-6-8,86.7,78.2,71.5,78.7,74.2,70.0,97,88,73,30.08,29.95,10,2,20,1.18
2013-6-9,89.7,79.5,71.3,79.2,73.7,69.8,98,84,60,30.07,29.98,8,1,12,0.04
2013-6-10,90.0,81.1,74.9,77.0,74.9,73.4,96,83,63,30.06,30.00,7,2,12,0.00
2013-6-11,88.8,82.3,74.1,77.1,74.4,70.0,96,78,59,30.08,29.99,8,2,12,0.71
2013-6-12,90.8,84.6,78.8,76.8,74.0,70.7,87,71,57,30.07,29.98,12,2,20,0.00
2013-6-13,90.0,82.7,77.5,76.4,75.2,72.7,93,79,59,30.03,29.90,8,1,12,0.00
2013-6-14,89.3,84.2,78.7,75.7,74.3,73.0,87,73,62,29.94,29.87,6,1,12,0.00
2013-6-15,89.9,82.7,77.7,77.9,75.4,72.3,90,79,65,30.03,29.91,7,1,12,0.00
2013-6-16,91.9,84.0,76.0,78.8,76.6,72.8,95,79,59,30.05,30.00,7,1,12,0.77
2013-6-17,92.3,82.7,75.8,77.8,75.4,71.7,97,80,57,30.04,29.98,7,1,10,0.01
2013-6-18,91.2,85.7,77.6,77.2,75.8,72.2,92,73,57,30.04,29.95,8,1,12,0.00
2013-6-19,92.5,83.1,74.2,78.9,75.9,72.0,97,80,59,30.02,29.95,7,1,10,0.39
2013-6-20,91.3,82.7,76.4,76.9,73.6,69.7,90,75,52,30.08,29.99,7,1,13,0.01
2013-6-21,93.0,80.7,72.6,75.7,72.4,69.9,94,78,52,30.09,30.01,7,1,16,0.32
2013-6-22,91.5,80.7,71.5,76.5,71.9,69.4,97,77,53,30.09,30.02,9,1,15,0.05
2013-6-23,93.0,78.7,71.1,76.5,73.2,68.2,98,85,51,30.11,30.03,14,1,20,0.23
2013-6-24,92.7,80.6,72.6,76.6,73.6,70.4,98,82,53,30.15,30.04,6,1,10,0.00
2013-6-25,91.6,83.1,73.9,76.5,73.6,70.8,96,75,53,30.10,30.00,12,1,20,0.00
2013-6-26,90.2,79.8,73.6,77.3,73.8,69.7,97,83,62,30.05,29.99,8,1,13,0.18
2013-6-27,91.3,81.2,71.4,77.2,73.6,69.7,96,79,59,30.03,29.93,6,1,9,0.01
2013-6-28,89.8,82.0,74.1,78.5,75.4,70.5,96,81,59,29.96,29.83,8,1,14,0.94
2013-6-29,89.0,81.7,76.6,78.5,75.4,73.4,94,82,65,29.87,29.79,11,2,17,0.19
2013-6-30,88.3,81.9,74.4,79.0,75.8,72.7,95,82,68,29.87,29.79,13,4,21,0.30
2013-7-1,78.3,75.1,72.6,75.9,73.5,71.3,98,95,86,29.97,29.83,14,4,25,1.25
2013-7-2,88.8,78.1,73.0,77.1,73.4,70.7,97,86,61,30.06,29.94,14,3,20,0.36
2013-7-3,88.7,79.7,71.8,77.8,74.4,69.0,98,85,63,30.07,30.01,18,4,33,1.73
2013-7-4,90.2,80.6,73.9,77.7,74.3,69.6,95,82,59,30.12,30.04,13,3,20,0.05
2013-7-5,88.5,76.2,71.9,77.3,73.3,69.1,95,91,65,30.12,30.03,16,1,24,0.12
2013-7-6,93.2,80.8,72.7,77.1,74.1,70.7,98,82,50,30.09,30.00,9,2,17,0.01
2013-7-7,93.3,82.5,74.7,76.5,74.1,71.3,95,77,50,30.10,29.99,10,2,17,0.00
2013-7-8,92.5,82.5,74.9,77.7,73.8,70.7,95,77,52,30.13,30.05,8,1,14,0.00
2013-7-9,93.6,85.5,76.8,76.1,72.8,69.0,91,67,48,30.15,30.02,9,2,13,0.00
2013-7-10,90.5,80.1,72.9,75.4,73.0,70.5,96,80,55,30.07,29.95,10,1,14,0.10
2013-7-11,87.5,79.8,74.7,76.4,74.3,71.8,96,84,64,30.01,29.91,8,2,12,0.01
2013-7-12,89.4,80.6,74.3,76.6,74.1,71.4,96,82,62,29.95,29.87,8,1,12,0.06
2013-7-13,86.5,78.3,73.9,78.3,74.2,72.0,96,88,68,29.96,29.89,10,1,14,0.95
2013-7-14,88.8,77.4,72.8,78.0,73.9,70.6,97,90,68,30.05,29.93,10,2,13,0.51
2013-7-15,91.5,79.3,72.8,75.0,72.8,71.0,96,82,57,30.08,29.97,10,1,15,0.16
2013-7-16,87.7,76.9,73.5,77.3,72.9,69.2,97,88,61,30.12,30.04,16,2,26,0.19
2013-7-17,92.2,77.9,73.3,76.5,72.9,69.7,97,86,54,30.13,30.04,12,1,20,0.02
2013-7-18,85.3,78.7,72.8,75.8,73.6,69.8,97,85,68,30.09,30.02,11,2,16,0.63
2013-7-19,89.6,77.7,72.0,78.0,73.2,70.2,98,87,60,30.10,30.04,9,2,14,0.00
2013-7-20,92.8,78.9,71.8,78.6,72.9,70.2,97,83,59,30.09,30.00,12,1,20,0.00
2013-7-21,89.3,81.7,73.5,79.5,75.5,72.0,96,83,64,30.10,30.03,10,2,14,0.00
2013-7-22,89.2,82.2,76.2,78.9,76.8,74.7,97,85,69,30.12,30.05,10,2,15,0.00
2013-7-23,89.3,84.4,80.7,76.7,75.2,73.8,84,74,62,30.08,29.96,10,2,15,0.00
2013-7-24,89.9,83.6,78.8,77.0,75.2,73.4,87,76,63,30.00,29.90,6,1,14,0.00
2013-7-25,89.0,83.4,78.4,78.4,76.3,74.1,93,80,65,30.00,29.88,6,2,13,0.04
2013-7-26,91.3,85.4,78.8,79.2,77.4,75.5,94,78,65,30.00,29.94,12,2,16,1.00
2013-7-27,92.3,83.7,76.0,79.0,75.2,69.7,98,77,49,29.99,29.90,9,1,14,0.25
2013-7-28,89.9,81.1,75.3,77.9,75.3,72.6,97,83,64,30.04,29.92,8,1,12,0.05
2013-7-29,93.1,81.7,72.7,76.4,73.8,69.1,97,79,56,30.13,30.00,13,1,24,0.00
2013-7-30,94.8,78.8,73.9,77.7,73.9,71.7,95,86,50,30.15,30.04,17,1,23,0.10
2013-7-31,92.7,82.3,75.9,78.1,74.9,69.7,96,80,55,30.12,29.99,8,1,13,0.00
2013-8-1,91.5,82.9,75.4,77.1,74.5,70.3,94,77,58,30.04,29.92,7,1,12,0.00
2013-8-2,89.8,77.2,74.6,78.5,73.4,71.9,94,89,67,30.00,29.92,7,1,9,0.00
2013-8-3,91.8,87.0,82.2,78.0,76.0,74.2,82,70,59,30.08,30.03,8,2,13,0.00
2013-8-4,90.3,83.4,78.0,80.0,77.0,74.9,93,81,69,30.08,29.99,6,0,12,0.04
2013-8-5,92.7,85.1,78.5,80.3,77.1,75.4,92,78,63,30.02,29.92,6,1,12,0.00
2013-8-6,91.8,83.6,78.4,79.1,77.5,73.7,93,82,64,29.97,29.87,9,1,14,0.12
2013-8-7,94.0,81.3,74.8,79.6,75.4,71.3,97,83,57,29.94,29.88,11,1,20,0.27
2013-8-8,93.0,81.0,75.0,78.9,75.5,73.0,97,85,55,29.97,29.90,16,2,25,0.02
2013-8-9,92.3,88.1,83.8,76.7,74.4,71.9,78,64,53,30.02,29.99,7,3,12,0.00
2013-8-31,90.1,82.2,77.8,76.3,74.2,73.2,90,78,63,29.95,29.89,4,0,12,0.07
2013-9-1,91.7,82.0,75.5,77.0,74.5,72.2,95,79,56,29.97,29.90,6,1,9,0.02
2013-9-2,91.8,81.8,74.8,78.2,74.9,70.2,96,81,61,30.01,29.92,8,1,13,0.14
2013-9-3,89.5,81.5,75.7,78.4,75.3,71.4,97,82,64,30.01,29.91,8,0,12,0.01
2013-9-4,91.1,77.7,74.3,77.3,74.0,68.9,94,89,60,30.06,29.94,9,1,20,4.00
2013-9-5,86.3,76.7,74.6,79.0,73.7,72.0,95,91,78,30.06,30.00,5,0,8,0.00
2013-9-6,93.5,83.4,73.2,78.8,75.2,71.1,97,78,59,30.03,29.91,14,2,22,0.07
2013-9-7,92.3,79.5,71.3,76.4,72.8,69.5,96,81,54,30.00,29.89,11,2,16,0.01
2013-9-8,90.5,80.8,73.3,76.0,73.0,70.2,94,79,52,29.94,29.84,10,2,14,0.00
2013-9-9,93.0,87.2,78.6,75.3,72.5,69.4,88,63,50,30.00,29.90,9,2,14,0.00
2013-9-10,92.6,82.1,74.9,75.3,71.9,66.3,94,74,46,30.04,29.96,12,2,20,0.00
2013-9-11,91.7,82.0,74.8,76.0,72.4,68.2,92,74,52,30.04,29.95,14,2,23,0.07
2013-9-12,91.3,80.8,73.7,76.4,73.4,70.2,95,79,61,30.00,29.87,8,1,12,0.00
2013-9-13,91.3,85.1,78.3,75.9,74.3,71.5,88,71,54,29.89,29.80,7,1,12,0.00
2013-9-14,91.8,85.6,75.5,75.8,74.0,70.0,92,69,56,29.95,29.83,7,1,13,0.00
2013-9-15,94.0,80.8,70.5,78.0,73.8,69.0,97,81,53,30.07,29.93,15,2,29,1.71
2013-9-16,91.7,77.4,72.5,77.8,73.8,70.5,97,90,57,30.03,29.95,12,1,23,0.11
2013-9-17,92.1,78.1,72.2,77.0,73.3,71.3,98,87,55,30.02,29.91,9,2,21,0.15
2013-9-18,91.6,78.7,73.2,76.8,73.7,71.8,97,86,56,30.01,29.92,10,2,18,0.55
2013-9-19,91.0,79.5,73.0,77.2,73.8,71.5,97,84,58,30.03,29.94,9,2,14,0.01
2013-9-20,91.2,80.8,72.4,74.0,71.1,67.8,95,74,51,30.00,29.87,8,1,13,0.00
2013-9-21,88.0,79.0,70.3,73.8,70.6,67.7,92,77,57,29.92,29.77,9,2,15,0.00
2013-9-22,88.3,81.4,75.3,76.7,75.1,73.1,94,82,64,29.84,29.74,12,2,22,0.00
2013-9-23,82.8,77.4,74.9,77.9,75.7,74.0,98,94,85,29.93,29.81,6,2,12,1.85
2013-9-24,79.0,75.9,74.2,76.5,74.7,73.4,98,96,90,29.95,29.83,9,2,14,2.00
2013-9-25,79.8,74.6,70.6,77.4,72.8,69.3,98,94,85,29.93,29.79,10,2,18,2.32
2013-9-26,89.1,82.3,76.5,79.6,76.4,72.4,95,83,67,29.85,29.78,10,2,16,0.01
2013-9-27,85.8,78.3,71.5,74.2,71.2,69.5,95,80,63,29.94,29.84,10,4,16,0.00
2013-9-28,88.2,78.4,71.2,75.1,71.5,69.7,95,80,60,29.98,29.89,9,3,14,0.00
2013-9-29,88.8,78.4,71.2,72.8,70.0,63.1,93,77,44,29.97,29.87,9,2,12,0.00
2013-9-30,90.2,83.3,72.5,74.6,72.0,67.0,93,70,50,29.97,29.89,7,2,13,0.00
2013-10-1,91.7,80.9,71.4,74.9,71.2,67.8,96,74,50,30.02,29.93,8,1,13,0.00
2013-10-2,90.5,80.5,72.9,73.8,71.6,70.4,93,76,56,30.02,29.94,9,2,16,0.00
2013-10-3,90.2,80.2,72.3,75.3,71.9,69.5,92,77,52,30.04,29.94,9,1,14,0.00
2013-10-4,90.2,81.0,74.3,75.2,72.7,68.4,94,77,51,30.06,29.97,7,1,10,0.00
2013-10-5,88.8,82.3,73.1,76.3,73.0,70.5,92,74,58,30.04,29.92,7,1,12,0.00
2013-10-6,88.8,80.9,72.0,75.4,72.5,67.0,97,77,51,29.97,29.85,8,2,15,0.00
2013-10-7,86.3,79.4,73.8,78.2,74.7,71.5,95,86,74,29.86,29.75,13,3,25,0.21
2013-10-8,86.0,80.8,74.8,76.7,73.8,71.0,89,80,67,29.93,29.79,9,2,14,0.00
2013-10-9,79.0,74.2,68.7,71.2,69.1,65.6,91,84,75,30.02,29.92,8,3,14,0.00
2013-10-10,84.5,74.3,65.6,72.0,67.7,64.1,95,81,61,30.04,29.94,9,2,14,0.00
2013-10-11,86.5,76.3,65.4,69.8,66.8,64.2,98,75,51,30.02,29.93,8,1,10,0.00
2013-10-12,85.3,75.6,66.0,68.5,65.0,60.2,92,71,46,30.03,29.96,9,1,14,0.00
2013-10-13,86.0,76.1,64.6,70.7,64.2,60.9,92,68,44,30.06,29.96,9,2,13,0.00
2013-10-14,84.3,75.6,65.8,70.3,66.8,63.1,93,75,53,30.03,29.91,10,3,15,0.00
2013-10-15,81.3,73.9,67.5,72.3,68.8,65.7,95,84,69,29.98,29.88,7,2,12,0.00
2013-10-16,84.1,76.7,69.8,73.2,70.4,68.0,95,81,67,29.95,29.89,6,1,12,0.00
2013-10-17,87.5,77.1,67.9,72.6,69.5,66.2,96,79,51,29.96,29.88,6,1,9,0.00
2013-10-18,88.5,78.9,70.1,74.7,71.4,68.5,96,79,57,29.96,29.88,7,1,12,0.00
2013-10-19,87.8,80.9,74.0,76.9,74.3,68.7,96,81,56,29.93,29.85,8,2,14,0.01
2013-10-20,88.8,79.0,73.2,77.7,73.9,72.2,98,85,62,29.94,29.85,6,0,9,0.08
2013-10-21,87.8,78.8,72.2,76.0,72.8,70.6,97,83,60,29.99,29.90,7,0,12,0.00
2013-10-22,86.3,77.3,69.5,77.4,73.2,68.8,98,88,73,29.94,29.81,10,2,16,0.87
2013-10-23,79.2,74.6,71.8,73.2,65.0,52.6,98,74,45,29.99,29.80,13,4,20,0.01
2013-10-24,72.5,68.1,63.1,59.2,53.3,45.3,80,60,48,30.15,29.98,11,4,16,0.00
2013-10-25,79.2,69.8,61.3,62.6,57.3,51.3,90,67,41,30.22,30.12,10,3,17,0.00
2013-10-26,78.0,70.1,61.8,62.1,58.7,52.3,85,68,44,30.19,30.08,8,2,12,0.00
2013-10-27,79.0,67.4,58.1,63.4,58.0,54.1,91,74,48,30.11,30.03,8,2,13,0.00
2013-10-28,81.0,70.8,58.3,63.5,59.8,56.1,95,70,47,30.17,30.07,10,2,15,0.00
2013-10-29,85.4,73.3,63.8,66.8,63.0,59.8,90,72,43,30.20,30.09,10,2,16,0.00
2013-10-30,86.1,74.9,65.9,69.8,65.5,62.7,94,74,49,30.20,30.06,9,2,15,0.00
2013-10-31,86.0,74.7,64.9,71.2,67.4,63.1,95,79,52,30.10,29.96,9,2,15,0.00
2013-11-1,83.0,76.4,70.5,75.3,72.2,68.7,95,87,75,29.99,29.87,12,3,21,0.00
2013-11-2,78.6,72.7,67.2,74.7,68.7,61.5,96,88,73,29.96,29.81,11,2,18,0.34
2013-11-3,75.9,68.3,62.4,61.7,52.3,41.8,86,59,31,30.09,29.95,11,4,18,0.00
2013-11-4,81.4,69.1,59.3,63.0,58.3,51.8,86,70,47,30.12,30.04,15,4,24,0.00
2013-11-5,83.3,73.7,65.2,70.2,66.6,62.8,92,79,62,30.10,30.02,12,4,20,0.00
2013-11-6,85.8,76.0,69.0,69.7,67.6,65.4,94,77,53,30.08,29.98,8,2,20,0.00
2013-11-8,79.9,72.8,65.0,66.3,63.3,60.7,86,73,60,30.09,30.00,10,5,16,0.00
2013-11-9,84.2,73.1,64.4,69.5,64.7,60.3,87,76,59,30.12,30.04,10,3,17,0.00
2013-11-10,83.1,73.3,65.5,69.1,65.6,62.8,91,78,59,30.14,30.04,8,2,13,0.00
2013-11-11,83.3,73.0,66.4,69.7,66.6,63.8,93,81,57,30.13,30.04,8,2,13,0.00
2013-11-12,79.7,71.0,65.2,69.4,66.2,58.2,96,85,65,30.09,29.99,12,1,20,0.00
2013-11-13,70.1,63.2,55.3,58.6,52.0,48.2,78,67,58,30.27,30.05,14,7,24,0.00
2013-11-14,77.5,68.8,53.3,58.3,55.8,49.2,86,64,50,30.26,30.13,10,2,24,0.00
2013-11-15,76.0,69.7,62.2,66.0,63.1,58.3,88,80,67,30.15,30.02,8,2,13,0.00
2013-11-16,78.6,74.0,69.3,70.8,67.1,64.5,92,79,70,30.10,30.00,9,2,15,0.01
2013-11-17,84.5,74.4,68.6,71.3,67.9,64.1,93,81,57,30.05,29.97,10,2,15,0.00
2013-11-18,83.0,74.6,68.0,72.3,69.9,66.8,97,86,67,30.01,29.92,7,1,10,0.01
2013-11-19,80.8,74.8,70.8,72.3,70.9,68.7,97,88,72,29.93,29.86,9,2,14,0.15
2013-11-20,81.7,74.9,66.3,72.3,69.3,63.6,91,83,73,30.06,29.95,7,2,14,0.00
2013-11-21,85.0,78.8,70.4,72.6,71.2,67.6,94,78,64,30.13,30.05,10,2,20,0.00
2013-11-22,73.9,71.6,69.2,67.0,65.3,64.2,84,81,78,30.11,30.08,4,1,8,0.00
2013-11-23,81.6,72.0,63.9,68.8,65.7,62.4,96,82,60,30.10,29.99,7,1,12,0.00
2013-11-24,73.7,66.6,59.6,65.7,60.8,53.4,94,82,70,30.19,30.01,14,5,20,0.00
2013-11-25,77.4,68.3,60.0,63.7,59.0,53.7,87,73,56,30.19,30.02,12,4,22,0.00
2013-11-26,81.2,73.0,67.0,73.2,69.6,63.7,96,89,74,30.02,29.76,19,7,32,0.48
2013-11-27,72.3,63.1,49.8,71.4,55.6,38.1,97,77,61,30.18,29.74,15,6,32,0.31
2013-11-28,49.4,44.4,40.4,38.6,35.7,34.1,78,71,62,30.32,30.18,14,5,23,0.00
2013-11-29,71.5,65.6,57.4,57.4,55.2,51.6,85,70,52,30.33,30.23,12,4,18,0.00
2013-11-30,75.8,69.5,59.0,64.5,61.8,56.1,93,77,67,30.27,30.15,10,3,16,0.00
2013-12-1,70.5,63.8,57.2,64.6,61.1,56.4,99,91,80,30.17,29.90,9,2,12,0.00
2013-12-2,68.3,65.0,60.6,61.6,60.4,59.1,98,85,75,29.93,29.84,4,0,7,0.01
2013-12-3,76.1,72.4,68.9,68.3,66.2,62.1,93,81,69,29.95,29.88,10,3,15,0.00
2013-12-4,80.3,70.9,64.0,69.8,66.4,62.7,97,86,68,30.06,29.94,11,2,18,0.00
2013-12-5,81.7,74.2,64.1,69.6,67.0,62.8,96,79,57,30.15,30.05,7,2,14,0.00
2013-12-6,81.5,76.7,70.6,72.1,70.5,69.1,95,82,69,30.15,30.06,15,4,22,0.01
2013-12-7,83.6,72.4,65.0,69.8,67.0,63.7,97,85,52,30.21,30.12,4,1,8,0.00
2013-12-8,83.8,72.0,64.2,70.0,66.7,63.3,98,85,59,30.19,30.07,10,2,15,0.01
2013-12-9,81.5,73.8,66.6,71.9,69.0,64.7,96,86,71,30.16,30.13,10,5,19,0.00
2013-12-10,80.5,70.8,60.9,72.2,67.6,60.3,99,90,75,30.13,30.13,6,6,16,0.01
2013-12-11,82.8,70.8,64.6,69.4,66.0,61.3,97,86,61,30.22,30.12,8,4,13,0.00
2013-12-12,71.8,65.1,54.7,66.2,54.7,32.4,98,73,35,30.27,30.16,11,4,16,0.00
2013-12-13,61.9,53.1,51.2,53.6,44.7,34.6,85,74,47,30.26,30.17,8,4,13,0.00
2013-12-14,81.2,76.0,72.6,71.3,70.5,70.0,93,84,70,29.99,29.94,18,8,28,0.00
2013-12-15,72.9,68.6,61.0,72.3,64.4,56.9,98,87,70,30.11,29.89,12,4,18,0.58
2013-12-16,62.8,57.1,52.0,57.1,49.4,43.1,89,76,56,30.21,30.09,8,4,16,0.00
2013-12-17,66.7,52.9,47.3,54.6,46.7,42.6,86,80,63,30.23,30.15,10,2,14,0.00
2013-12-18,69.2,59.2,49.1,53.5,47.8,42.2,92,69,42,30.27,30.18,12,3,18,0.00
2013-12-19,76.6,59.9,47.3,58.9,52.0,45.0,94,77,44,30.25,30.12,7,1,12,0.00
2013-12-20,83.5,72.4,59.8,68.4,63.7,55.6,90,75,59,30.17,30.06,9,2,17,0.00
2013-12-21,84.8,76.8,70.2,71.6,69.8,67.4,93,79,62,30.10,30.00,13,5,21,0.00
2013-12-22,81.0,74.2,70.1,72.5,69.9,67.4,94,87,74,30.11,30.04,14,5,23,0.00
2013-12-23,80.7,75.5,68.4,73.8,71.9,67.5,98,89,78,30.15,30.08,14,6,21,0.00
2013-12-24,72.8,63.6,52.3,71.6,53.6,37.3,96,72,40,30.24,30.10,12,6,21,0.00
2013-12-25,76.3,62.2,51.4,61.0,50.6,39.8,75,66,58,30.23,30.09,11,4,18,0.00
2013-12-26,76.7,70.1,60.3,64.7,62.2,57.0,89,77,60,30.17,30.06,7,2,12,0.00
2013-12-27,75.8,69.4,61.4,67.3,64.1,57.8,93,84,73,30.19,30.10,53,5,53,0.00
2013-12-28,79.4,72.7,65.4,69.9,66.7,61.4,95,82,71,30.19,29.97,53,16,53,0.00
2013-12-29,74.0,71.3,63.4,72.0,69.2,61.3,97,93,88,30.00,29.87,16,5,26,0.14
2013-12-30,64.1,62.6,61.5,61.9,59.6,58.6,94,90,86,30.18,29.99,9,2,13,0.00
2013-12-31,67.0,63.5,59.7,58.7,53.8,51.4,89,71,60,30.27,30.13,9,3,13,0.00
2014-1-1,68.5,64.6,60.6,64.5,59.6,52.5,94,84,71,30.22,30.06,10,4,18,0.05
2014-1-2,77.0,68.6,61.3,71.8,66.1,55.1,98,92,80,29.98,29.85,16,4,25,0.03